Location: Jeromesville
(40.8042°N, 82.1957°W)
Time: 12:18:47
(UTC+00:00)

Daily predictions for brighter satellites

Satellite Brightness Start Highest point End
(mag) Time Altitude Azimuth Time Altitude Azimuth Time Altitude Azimuth
Alouette 2 Rocket 3.2 12:01:41 10° N 12:05:26 89° ENE 12:09:02 10° S
Cosmos 2297 Rocket 4.1 12:01:20 10° N 12:05:58 25° NE 12:10:34 10° ESE
BREEZE M DEB (TANK) 3.8 12:04:02 10° NW 12:06:13 18° N 12:07:49 10° NE
Cosmos 2228 Rocket 3.4 12:02:31 10° N 12:07:01 74° E 12:11:32 10° SSE
Cosmos 2369 Rocket 3.6 12:04:59 10° W 12:08:34 17° NW 12:12:11 10° N
Cosmos 1408 Rocket 4.4 12:05:13 10° SW 12:08:56 28° WNW 12:12:40 10° NNW
FengYun 1-2 T 4.3 12:07:12 10° N 12:12:36 59° WNW 12:17:58 10° SSW
USA 267 3.6 22:22:05 10° NE 22:28:33 65° NW 22:34:58 10° WSW
Cosmos 1340 Rocket 2.8 22:30:20 10° N 22:34:24 68° E 22:38:26 10° SSE
Cosmos 1606 4.2 22:31:07 10° SSW 22:34:39 39° WNW 22:38:13 10° N
CZ-2D R/B 4.3 22:33:07 10° ESE 22:36:12 24° ENE 22:39:18 10° NNE
NOAA 12 4.2 22:33:24 10° SSE 22:38:43 87° ENE 22:44:04 10° NNW
Cosmos 2026 Rocket 4.3 22:33:44 10° N 22:39:29 40° ENE 22:45:08 10° SE
SJ 16-02 3.6 22:36:41 10° NW 22:40:29 29° W 22:44:16 10° SSW
COSMOS 2406 3.3 22:36:14 10° S 22:41:53 61° ESE 22:47:32 10° NNE
USA 229 DEB 4.0 22:36:11 10° NNW 22:43:31 63° NE 22:51:16 10° SE
USA 229 4.0 22:36:17 10° NNW 22:43:36 62° NE 22:51:21 10° SE
COSMOS 2455 3.1 22:41:08 10° S 22:46:55 50° ESE 22:52:43 10° NE
ARGOS 4.2 22:43:06 10° ESE 22:47:15 23° ENE 22:51:24 10° NNE
Cosmos 1833 Rocket 2.7 22:41:40 10° SSW 22:47:17 88° ESE 22:52:57 10° NNE
CZ-4B R/B 3.5 22:45:27 10° S 22:49:32 62° WSW 22:53:26 10° NNW
Cosmos 1500 4.0 22:46:49 10° NNE 22:50:05 28° ENE 22:53:19 10° SE
ATLAS CENTAUR R/B 3.5 22:38:01 10° SW 22:50:06 75° NW 22:54:49 10° NE
Cosmos 1500 Rocket 3.6 22:49:22 10° N 22:53:49 87° W 22:58:12 10° S
Cosmos 1933 3.3 22:53:57 10° S 22:58:00 85° E 23:02:03 10° N
PAYLOAD B 4.4 22:53:44 10° SE 22:59:09 52° ENE 23:04:34 10° N
USA 234 3.2 22:53:51 10° ESE 23:00:20 69° NE 23:06:49 10° NW
SMAP 3.1 22:55:56 10° SSE 23:00:35 87° WSW 23:05:17 10° NNW
Cosmos 540 Rocket 3.4 22:56:18 10° SSW 23:01:23 80° ESE 23:06:31 10° NNE
PSLV R/B 3.7 22:58:38 10° SSE 23:02:13 55° ENE 23:05:51 10° N
CZ-4B R/B 3.5 23:00:09 10° SE 23:05:10 40° ENE 23:10:08 10° N
Sich 1 3.1 23:01:10 10° N 23:05:24 55° E 23:09:37 10° SSE
Cosmos 1805 Rocket 3.4 23:01:06 10° N 23:05:27 72° E 23:09:45 10° SSE
Cosmos 1809 Rocket 4.4 23:00:09 10° N 23:06:16 73° E 23:12:19 10° SSE
Cosmos 1814 Rocket 4.5 23:01:38 10° S 23:06:29 40° ESE 23:10:55 12° NE
NOSS 3-1 (A) 4.2 22:59:26 10° NW 23:07:12 89° ENE 23:16:09 10° SSE
GPS 2-04 Rocket1 3.8 23:05:47 10° WSW 23:09:39 40° S 23:12:58 13° ESE
CZ-2C R/B 2.9 23:06:00 10° NNE 23:10:57 44° E 23:15:51 10° S
Cosmos 2360 4.1 23:05:40 10° NNW 23:11:26 78° ENE 23:17:08 10° SSE
Meteor 1-26 Rocket 4.3 23:10:39 10° S 23:16:34 83° E 23:22:38 10° N
deb Chang Zheng 4 3.9 23:13:22 10° SE 23:17:24 41° ENE 23:21:28 10° N
Cosmos 1898 Rocket 3.7 23:12:39 10° NNW 23:17:54 73° WSW 23:23:03 10° S
Cosmos 2084 4.0 23:15:02 10° NW 23:19:21 65° WSW 23:23:49 10° SSE
Cosmos 1666 3.2 23:16:20 10° NNE 23:19:44 33° ENE 23:23:07 10° SE
MOS 1-B 4.3 23:16:30 10° SSE 23:22:14 76° ENE 23:28:02 10° N
CZ-4C R/B 3.2 23:21:21 10° NNW 23:28:20 46° NE 23:36:22 10° ESE
Cosmos 2208 Rocket 4.3 23:27:12 10° S 23:32:20 48° ESE 23:35:28 23° NE
Cosmos 1812 2.6 23:29:44 10° S 23:33:35 82° E 23:36:51 14° N
H-2A R/B 2.1 23:29:49 10° SSE 23:35:02 84° WSW 23:40:08 10° NNW
SJ-11-01 4.3 23:31:06 10° SSE 23:35:45 59° ENE 23:40:25 10° N
COSMO-SKYMED 1 2.4 23:34:00 11° NNE 23:38:16 82° ESE 23:42:36 10° S
USA 276 3.4 23:36:42 10° WNW 23:39:38 38° SW 23:41:29 19° SSE
Cosmos 921 Rocket 3.4 23:44:01 10° S 23:47:24 39° ESE 23:47:24 39° ESE
Cosmos 1633 Rocket 2.9 23:44:49 10° N 23:49:12 75° E 23:53:34 10° SSE
Meteor 1-14 Rocket 4.2 23:43:34 10° N 23:49:26 87° E 23:55:23 10° S
Cosmos 2322 Rocket 3.9 23:45:31 10° N 23:47:27 16° NNE 23:47:27 16° NNE
Cosmos 1697 Rocket 3.9 23:47:07 10° NW 23:52:25 44° WSW 23:57:42 10° S
Cosmos 841 Rocket 4.4 23:47:41 10° SW 23:52:38 46° WNW 23:57:35 10° N
